Weather History for Cincinnati, OH

Change the Weather History Date:

Friday, February 8, 2013

  Actual Average Record
Temperature  
Mean Temperature 42 °F -  
Max Temperature 51 °F 37 °F 69 °F (2001)
Min Temperature 33 °F 20 °F -4 °F (1977)
Degree Days  
Heating Degree Days 23    
Moisture  
Dew Point 32 °F    
Average Humidity 76    
Maximum Humidity 100    
Minimum Humidity 60    
Precipitation  
Precipitation 0.01 in - - ()
Sea Level Pressure  
Sea Level Pressure 30.08 in    
Wind  
Wind Speed 10 mph (NW)    
Max Wind Speed 17 mph    
Max Gust Speed 23 mph    
Visibility 10 miles    
Events Rain    
Averages and records for this station are not official NWS values.
T = Trace of Precipitation, MM = Missing Value Source: NWS Daily Summary

Daily Weather History Graph

Daily Weather History Graph

Search for Another Location

Airport:

Trip Planner

Search our weather history database for the weather conditions in past years. The results will help you decide how hot, cold, wet, or windy it might be!

Date:

Astronomy

Feb. 08, 2013 Rise Set
Actual Time 7:37 AM EST 6:07 PM EST
Civil Twilight 7:09 AM EST 6:34 PM EST
Nautical Twilight 6:37 AM EST 7:06 PM EST
Astronomical Twilight 6:06 AM EST 7:37 PM EST
Moon 6:04 AM EST (2/8) 4:39 PM EST (2/8)
Length of Visible Light 11h 25m
Length of Day
10h 30m
Waning Crescent, 3% of the Moon is Illuminated
Feb 8
Waning Crescent
Feb 10
New
Feb 17
First Quarter
Feb 25
Full
Mar 4
Last Quarter

Hourly Weather History & Observations

Time (EST) Temp. Windchill Dew Point Humidity Pressure Visibility Wind Dir Wind Speed Gust Speed Precip Events Conditions
12:53 AM 48.9 °F - 36.0 °F 61% 29.83 in 10.0 mi SSW 9.2 mph - N/A   Overcast
1:53 AM 51.1 °F - 39.9 °F 66% 29.82 in 10.0 mi SSW 11.5 mph 18.4 mph 0.00 in Rain Light Rain
2:53 AM 48.0 °F - 45.0 °F 89% 29.82 in 10.0 mi SW 6.9 mph - 0.00 in Rain Light Rain
3:34 AM 46.4 °F 43.5 °F 46.4 °F 100% 29.82 in 7.0 mi WSW 5.8 mph - 0.00 in Rain Light Rain
3:53 AM 48.0 °F - 46.0 °F 93% 29.82 in 6.0 mi WNW 9.2 mph 17.3 mph 0.01 in Rain Light Rain
4:20 AM 46.4 °F 41.5 °F 42.8 °F 87% 29.85 in 9.0 mi NW 10.4 mph 20.7 mph 0.00 in Rain Light Rain
4:35 AM 44.6 °F 38.4 °F 42.8 °F 93% 29.86 in 7.0 mi NW 12.7 mph 19.6 mph 0.00 in Rain Light Rain
4:44 AM 44.6 °F 39.2 °F 41.0 °F 87% 29.86 in 9.0 mi NW 10.4 mph - 0.00 in Rain Light Rain
4:53 AM 43.0 °F 36.4 °F 39.9 °F 89% 29.88 in 10.0 mi NW 12.7 mph 23.0 mph 0.00 in Rain Light Rain
5:21 AM 42.8 °F 36.6 °F 39.2 °F 87% 29.89 in 10.0 mi NW 11.5 mph 21.9 mph 0.00 in Rain Light Rain
5:53 AM 39.9 °F 32.9 °F 37.0 °F 89% 29.91 in 10.0 mi WNW 11.5 mph 20.7 mph 0.00 in   Overcast
6:05 AM 39.2 °F 33.6 °F 35.6 °F 87% 29.92 in 10.0 mi WNW 8.1 mph 18.4 mph N/A   Overcast
6:53 AM 37.4 °F 28.9 °F 33.8 °F 87% 29.95 in 10.0 mi NW 13.8 mph 23.0 mph N/A   Overcast
7:53 AM 37.0 °F 29.3 °F 30.9 °F 79% 30.00 in 10.0 mi WNW 11.5 mph 16.1 mph N/A   Overcast
8:53 AM 36.0 °F 27.5 °F 30.9 °F 82% 30.04 in 10.0 mi WNW 12.7 mph 23.0 mph N/A   Overcast
9:53 AM 36.0 °F 27.1 °F 30.9 °F 82% 30.07 in 10.0 mi WNW 13.8 mph 19.6 mph N/A   Overcast
10:53 AM 36.0 °F 31.1 °F 30.9 °F 82% 30.11 in 10.0 mi Variable 5.8 mph - N/A   Overcast
11:53 AM 36.0 °F 30.3 °F 30.0 °F 79% 30.13 in 10.0 mi West 6.9 mph 18.4 mph N/A   Overcast
12:53 PM 37.0 °F 29.3 °F 28.9 °F 73% 30.14 in 10.0 mi NW 11.5 mph 18.4 mph N/A   Overcast
1:53 PM 37.0 °F 29.3 °F 28.0 °F 70% 30.16 in 10.0 mi NNW 11.5 mph - N/A   Overcast
2:53 PM 36.0 °F 26.0 °F 27.0 °F 70% 30.17 in 10.0 mi North 17.3 mph 21.9 mph N/A   Overcast
3:53 PM 36.0 °F 29.6 °F 27.0 °F 70% 30.19 in 10.0 mi NNW 8.1 mph 18.4 mph N/A   Overcast
4:53 PM 36.0 °F 30.3 °F 26.1 °F 67% 30.22 in 10.0 mi NW 6.9 mph - N/A   Overcast
5:53 PM 36.0 °F 28.5 °F 26.1 °F 67% 30.25 in 10.0 mi NW 10.4 mph - N/A   Overcast
6:50 PM 35.6 °F 28.0 °F 26.6 °F 70% 30.27 in 10.0 mi North 10.4 mph - N/A   Overcast
6:53 PM 36.0 °F 29.0 °F 26.1 °F 67% 30.28 in 10.0 mi NNW 9.2 mph - N/A   Overcast
7:53 PM 35.1 °F 27.9 °F 26.1 °F 70% 30.31 in 10.0 mi NNW 9.2 mph - N/A   Overcast
8:53 PM 34.0 °F 24.6 °F 24.1 °F 67% 30.34 in 10.0 mi NNW 13.8 mph - N/A   Overcast
9:53 PM 33.1 °F 26.9 °F 23.0 °F 66% 30.35 in 10.0 mi NNE 6.9 mph - N/A   Overcast
10:53 PM 33.1 °F 26.9 °F 23.0 °F 66% 30.35 in 10.0 mi North 6.9 mph - N/A   Overcast
11:07 PM 33.8 °F 26.4 °F 21.2 °F 60% 30.34 in 10.0 mi North 9.2 mph - N/A   Overcast
11:18 PM 33.8 °F 26.4 °F 21.2 °F 60% 30.34 in 10.0 mi North 9.2 mph - N/A   Overcast
11:53 PM 33.1 °F 26.1 °F 21.0 °F 61% 30.36 in 10.0 mi North 8.1 mph - N/A   Overcast